DW8500 Weather Reports


Display with metric or nautical units.
time (UTC)temp
F
wind
direction
speed
MPH
gust
MPH
rain 1hr
in
rain 24hr
in
rain mn
in
humidity
%
barometer
mb
20260831080038 60 214 0.0 0.0 0.00 0.00 0.00 63 1015.5
20260831075838 60 214 0.0 0.0 0.00 0.00 0.00 63 1016.0
20260831075339 61 214 0.0 0.0 0.00 0.00 0.00 64 1016.0
20260831074852 61 214 0.0 0.0 0.00 0.00 0.00 64 1015.9
20260831074512 60 214 0.0 0.0 0.00 0.00 0.00 64 1015.4
20260831074411 61 214 0.0 0.0 0.00 0.00 0.00 64 1015.9
20260831073907 61 214 0.0 0.0 0.00 0.00 0.00 64 1015.7
20260831073345 61 214 0.0 0.0 0.00 0.00 0.00 64 1015.7
20260831073044 60 214 0.0 0.0 0.00 0.00 0.00 64 1015.2
20260831072842 61 214 0.0 0.0 0.00 0.00 0.00 65 1015.6
20260831072358 61 214 0.0 1.0 0.00 0.00 0.00 66 1015.7
20260831071835 61 214 0.0 1.0 0.00 0.00 0.00 65 1015.7
20260831071536 61 214 0.0 1.0 0.00 0.00 0.00 65 1015.1
20260831071335 62 214 0.0 1.0 0.00 0.00 0.00 65 1015.7
20260831070904 62 214 0.0 1.0 0.00 0.00 0.00 64 1015.6
20260831070342 62 214 0.0 1.0 0.00 0.00 0.00 64 1015.6
20260831070042 62 214 0.0 1.0 0.00 0.00 0.00 64 1015.0
20260831065840 63 214 0.0 1.0 0.00 0.00 0.00 64 1015.5
20260831065339 63 214 0.0 1.0 0.00 0.00 0.00 64 1015.4
20260831064913 63 214 0.0 1.0 0.00 0.00 0.00 63 1015.4
20260831064509 63 214 0.0 2.0 0.00 0.00 0.00 62 1014.9
20260831064408 64 231 0.0 2.0 0.00 0.00 0.00 63 1015.4
20260831063855 64 293 0.0 2.0 0.00 0.00 0.00 63 1015.5
20260831063335 64 131 0.0 3.0 0.00 0.00 0.00 63 1015.5
20260831063050 64 321 0.0 3.0 0.00 0.00 0.00 62 1015.0
20260831062849 64 101 0.0 2.0 0.00 0.00 0.00 62 1015.5
20260831062347 64 236 0.0 3.0 0.00 0.00 0.00 62 1015.4
20260831061846 64 262 0.0 7.0 0.00 0.00 0.00 62 1015.4
20260831061507 64 15 0.0 7.0 0.00 0.00 0.00 63 1014.9
20260831061406 64 257 0.0 7.0 0.00 0.00 0.00 63 1015.4
20260831060838 64 39 0.0 3.0 0.00 0.00 0.00 64 1015.3
20260831060340 64 229 1.0 3.0 0.00 0.00 0.00 65 1015.3
20260831060106 63 230 0.0 2.0 0.00 0.00 0.00 65 1014.8
20260831055855 64 256 0.0 0.0 0.00 0.00 0.00 65 1015.4
20260831055335 64 232 0.0 0.0 0.00 0.00 0.00 65 1015.4
20260831054846 64 232 0.0 0.0 0.00 0.00 0.00 65 1015.4
20260831054513 63 232 0.0 1.0 0.00 0.00 0.00 66 1014.9
20260831054405 64 232 0.0 1.0 0.00 0.00 0.00 66 1015.4
20260831053841 64 231 0.0 1.0 0.00 0.00 0.00 66 1015.4
20260831053401 64 231 0.0 1.0 0.00 0.00 0.00 65 1015.4
20260831053035 64 231 0.0 0.0 0.00 0.00 0.00 65 1014.8
20260831052834 64 231 0.0 0.0 0.00 0.00 0.00 65 1015.2
20260831052354 64 231 0.0 1.0 0.00 0.00 0.00 65 1015.2
20260831051910 65 231 0.0 1.0 0.00 0.00 0.00 65 1015.2
20260831051559 64 231 0.0 1.0 0.00 0.00 0.00 65 1014.7
20260831051346 65 231 0.0 1.0 0.00 0.00 0.00 65 1015.2
20260831050843 65 231 0.0 1.0 0.00 0.00 0.00 65 1015.3
20260831050342 65 231 0.0 1.0 0.00 0.00 0.00 65 1015.3
20260831050040 65 231 0.0 1.0 0.00 0.00 0.00 64 1014.7
20260831045839 65 231 0.0 1.0 0.00 0.00 0.00 65 1015.3
20260831045339 65 255 0.0 1.0 0.00 0.00 0.00 64 1015.3
20260831044853 66 255 0.0 1.0 0.00 0.00 0.00 64 1015.2
20260831044554 66 255 0.0 1.0 0.00 0.00 0.00 64 1014.7
20260831044352 66 255 0.0 1.0 0.00 0.00 0.00 63 1015.1
20260831043850 66 271 0.0 2.0 0.00 0.00 0.00 63 1014.9
20260831043349 67 293 0.0 2.0 0.00 0.00 0.00 63 1015.0
20260831043049 66 290 0.0 2.0 0.00 0.00 0.00 63 1014.5
20260831042846 67 310 0.0 2.0 0.00 0.00 0.00 63 1014.8
20260831042345 67 245 0.0 1.0 0.00 0.00 0.00 62 1014.8
20260831041842 67 252 0.0 1.0 0.00 0.00 0.00 63 1014.7
20260831041540 67 204 0.0 1.0 0.00 0.00 0.00 62 1014.2
20260831041339 67 207 0.0 1.0 0.00 0.00 0.00 62 1014.8
20260831040835 68 223 0.0 1.0 0.00 0.00 0.00 62 1014.7
20260831040334 68 149 0.0 4.0 0.00 0.00 0.00 61 1014.6
20260831040009 67 304 0.0 4.0 0.00 0.00 0.00 61 1014.2
20260831035908 68 312 1.0 4.0 0.00 0.00 0.00 61 1014.8
20260831035347 68 249 0.0 1.0 0.00 0.00 0.00 61 1014.8
20260831034845 68 138 0.0 3.0 0.00 0.00 0.00 60 1014.8
20260831034507 68 110 0.0 3.0 0.00 0.00 0.00 60 1014.3
20260831034405 68 302 1.0 3.0 0.00 0.00 0.00 61 1014.7
20260831033841 68 155 0.0 2.0 0.00 0.00 0.00 61 1014.7
20260831033400 69 53 0.0 2.0 0.00 0.00 0.00 61 1014.8
20260831033053 68 52 0.0 2.0 0.00 0.00 0.00 61 1014.3
20260831032851 69 269 0.0 1.0 0.00 0.00 0.00 61 1014.9
20260831032410 69 262 0.0 1.0 0.00 0.00 0.00 61 1014.8
20260831031845 69 271 0.0 1.0 0.00 0.00 0.00 61 1014.8
20260831031547 69 233 0.0 1.0 0.00 0.00 0.00 61 1014.4
20260831031344 69 233 0.0 1.0 0.00 0.00 0.00 61 1014.9
20260831030903 69 242 0.0 1.0 0.00 0.00 0.00 61 1015.0
20260831030341 70 241 0.0 1.0 0.00 0.00 0.00 61 1014.8
20260831030047 69 243 0.0 2.0 0.00 0.00 0.00 61 1014.6
20260831025840 70 243 0.0 2.0 0.00 0.00 0.00 59 1015.0
20260831025340 70 58 0.0 2.0 0.00 0.00 0.00 59 1014.9
20260831024849 71 150 0.0 3.0 0.00 0.00 0.00 59 1014.8
20260831024616 70 172 0.0 3.0 0.00 0.00 0.00 58 1014.4
20260831023848 71 108 1.0 4.0 0.00 0.00 0.00 58 1014.5
20260831023345 71 165 1.0 5.0 0.00 0.00 0.00 57 1014.5
20260831023043 71 259 1.0 5.0 0.00 0.00 0.00 57 1014.0
20260831022841 71 131 1.0 5.0 0.00 0.00 0.00 58 1014.3
20260831022340 71 96 1.0 5.0 0.00 0.00 0.00 58 1014.4
20260831021838 72 306 1.0 6.0 0.00 0.00 0.00 57 1014.5
20260831021539 71 255 1.0 6.0 0.00 0.00 0.00 57 1014.1
20260831021337 72 267 1.0 6.0 0.00 0.00 0.00 56 1014.6
20260831020347 72 256 1.0 6.0 0.00 0.00 0.00 56 1014.5
20260831020005 71 324 1.0 6.0 0.00 0.00 0.00 56 1014.1
20260831015904 72 310 3.0 6.0 0.00 0.00 0.00 56 1014.6
20260831015338 72 252 1.0 5.0 0.00 0.00 0.00 56 1014.7
20260831014836 72 240 1.0 4.0 0.00 0.00 0.00 56 1014.6
20260831014540 72 266 1.0 6.0 0.00 0.00 0.00 56 1014.2
20260831014337 72 316 1.0 6.0 0.00 0.00 0.00 56 1014.6
20260831013853 72 14 2.0 6.0 0.00 0.00 0.00 56 1014.5
20260831013353 72 53 2.0 5.0 0.00 0.00 0.00 57 1014.6
20260831013109 71 286 0.0 5.0 0.00 0.00 0.00 57 1014.1
20260831012849 72 328 1.0 5.0 0.00 0.00 0.00 57 1014.4
20260831012348 72 328 0.0 2.0 0.00 0.00 0.00 58 1014.4
20260831011846 72 114 0.0 2.0 0.00 0.00 0.00 58 1014.3
20260831011546 71 193 0.0 4.0 0.00 0.00 0.00 57 1014.0
20260831011344 72 262 0.0 4.0 0.00 0.00 0.00 58 1014.4
20260831010843 72 273 1.0 4.0 0.00 0.00 0.00 58 1014.4
20260831010342 72 270 0.0 3.0 0.00 0.00 0.00 58 1014.1
20260831010041 72 248 0.0 4.0 0.00 0.00 0.00 57 1013.6
20260831005839 72 238 0.0 4.0 0.00 0.00 0.00 58 1014.2
20260831005354 72 295 0.0 3.0 0.00 0.00 0.00 58 1014.0
20260831004848 72 126 0.0 2.0 0.00 0.00 0.00 58 1014.0
20260831004549 72 75 0.0 3.0 0.00 0.00 0.00 58 1013.5
20260831004347 72 73 1.0 3.0 0.00 0.00 0.00 58 1014.0
20260831003845 72 257 1.0 3.0 0.00 0.00 0.00 58 1013.9
20260831003344 72 214 0.0 1.0 0.00 0.00 0.00 58 1013.8
20260831003043 72 232 0.0 1.0 0.00 0.00 0.00 58 1013.3
20260831002842 72 232 0.0 1.0 0.00 0.00 0.00 58 1013.7
20260831002341 72 235 0.0 2.0 0.00 0.00 0.00 57 1013.7
20260831001839 72 176 0.0 2.0 0.00 0.00 0.00 57 1013.7
20260831001539 72 210 0.0 2.0 0.00 0.00 0.00 57 1013.1
20260831001338 72 240 0.0 2.0 0.00 0.00 0.00 57 1013.6
20260831000834 72 181 0.0 1.0 0.00 0.00 0.00 57 1013.5
20260831000355 72 265 0.0 1.0 0.00 0.00 0.00 57 1013.4
20260831000049 72 265 0.0 1.0 0.00 0.00 0.00 57 1012.9
20260830235848 73 265 1.0 2.0 0.00 0.00 0.00 56 1013.3
20260830235347 73 242 0.0 3.0 0.00 0.00 0.00 56 1013.4
20260830234843 73 328 0.0 3.0 0.00 0.00 0.00 56 1013.3
20260830234543 72 322 0.0 3.0 0.00 0.00 0.00 56 1012.8
20260830234342 73 160 0.0 3.0 0.00 0.00 0.00 56 1013.3
20260830233859 73 331 0.0 3.0 0.00 0.00 0.00 56 1013.3
20260830233418 73 179 0.0 3.0 0.00 0.00 0.00 56 1013.3
20260830233013 72 264 0.0 3.0 0.00 0.00 0.00 56 1012.8
20260830232911 73 266 0.0 3.0 0.00 0.00 0.00 56 1013.3
20260830231835 73 241 0.0 2.0 0.00 0.00 0.00 55 1013.2
20260830231553 73 254 0.0 4.0 0.00 0.00 0.00 55 1012.8
20260830231352 73 272 0.0 4.0 0.00 0.00 0.00 55 1013.2
20260830230848 73 267 1.0 4.0 0.00 0.00 0.00 55 1013.3
20260830230405 73 276 0.0 4.0 0.00 0.00 0.00 55 1013.3
20260830230042 73 246 0.0 4.0 0.00 0.00 0.00 55 1012.8
20260830225840 74 202 0.0 3.0 0.00 0.00 0.00 54 1013.3
20260830225340 74 245 0.0 1.0 0.00 0.00 0.00 54 1013.3
20260830224838 74 212 0.0 2.0 0.00 0.00 0.00 54 1013.4
20260830224543 74 212 0.0 2.0 0.00 0.00 0.00 54 1012.9
20260830224339 74 212 0.0 2.0 0.00 0.00 0.00 53 1013.5
20260830223856 74 242 0.0 2.0 0.00 0.00 0.00 53 1013.5
20260830223354 74 252 0.0 2.0 0.00 0.00 0.00 52 1013.6
20260830223053 74 23 0.0 2.0 0.00 0.00 0.00 52 1013.0
20260830222849 75 270 0.0 3.0 0.00 0.00 0.00 52 1013.7
20260830222407 75 257 0.0 4.0 0.00 0.00 0.00 52 1013.7
20260830221843 75 248 1.0 4.0 0.00 0.00 0.00 51 1013.7
20260830221547 74 117 0.0 3.0 0.00 0.00 0.00 51 1013.2
20260830221342 75 326 0.0 3.0 0.00 0.00 0.00 51 1013.7
20260830220840 75 27 1.0 5.0 0.00 0.00 0.00 51 1013.7
20260830220340 75 228 1.0 5.0 0.00 0.00 0.00 51 1013.6
20260830220038 75 207 1.0 4.0 0.00 0.00 0.00 51 1013.2
20260830215837 75 137 0.0 3.0 0.00 0.00 0.00 51 1013.7
20260830215338 75 297 1.0 3.0 0.00 0.00 0.00 51 1013.7
20260830214834 76 255 1.0 3.0 0.00 0.00 0.00 50 1013.6
20260830214555 75 206 0.0 3.0 0.00 0.00 0.00 52 1013.1
20260830214354 76 206 1.0 3.0 0.00 0.00 0.00 51 1013.6
20260830213850 76 225 0.0 3.0 0.00 0.00 0.00 50 1013.6
20260830213349 77 68 0.0 1.0 0.00 0.00 0.00 50 1013.5
20260830213043 76 74 0.0 2.0 0.00 0.00 0.00 50 1013.1
20260830212842 77 75 0.0 2.0 0.00 0.00 0.00 49 1013.6
20260830212342 77 290 1.0 2.0 0.00 0.00 0.00 48 1013.5
20260830211840 78 125 0.0 2.0 0.00 0.00 0.00 48 1013.6
20260830211542 77 125 0.0 5.0 0.00 0.00 0.00 46 1013.3
20260830211340 78 276 0.0 5.0 0.00 0.00 0.00 46 1013.7
20260830210835 79 271 2.0 7.0 0.00 0.00 0.00 44 1013.8
20260830210355 79 247 2.0 7.0 0.00 0.00 0.00 46 1013.8
20260830210054 78 187 1.0 4.0 0.00 0.00 0.00 46 1013.4
20260830205853 78 8 1.0 2.0 0.00 0.00 0.00 46 1013.9
20260830205350 77 267 1.0 2.0 0.00 0.00 0.00 48 1014.0
20260830204848 77 359 0.0 2.0 0.00 0.00 0.00 46 1014.0
20260830204549 77 212 0.0 6.0 0.00 0.00 0.00 46 1013.5
20260830204348 77 281 1.0 6.0 0.00 0.00 0.00 46 1014.0
20260830203843 77 231 1.0 6.0 0.00 0.00 0.00 46 1013.9
20260830203337 77 276 1.0 5.0 0.00 0.00 0.00 45 1013.9
20260830203114 77 150 0.0 5.0 0.00 0.00 0.00 46 1013.5
20260830202851 77 266 1.0 5.0 0.00 0.00 0.00 45 1014.0
20260830202352 78 214 0.0 3.0 0.00 0.00 0.00 45 1014.0
20260830201847 78 245 1.0 3.0 0.00 0.00 0.00 47 1014.1
20260830201549 78 219 0.0 3.0 0.00 0.00 0.00 45 1013.6
20260830201345 78 270 0.0 3.0 0.00 0.00 0.00 45 1014.1
20260830200844 79 173 0.0 1.0 0.00 0.00 0.00 46 1014.1
20260830200345 78 240 0.0 3.0 0.00 0.00 0.00 44 1014.2
20260830200003 78 243 0.0 3.0 0.00 0.00 0.00 45 1013.6
20260830195902 78 243 0.0 3.0 0.00 0.00 0.00 45 1014.0
20260830195341 78 194 0.0 2.0 0.00 0.00 0.00 42 1014.1
20260830194855 78 278 0.0 2.0 0.00 0.00 0.00 44 1014.2
20260830194510 77 285 0.0 2.0 0.00 0.00 0.00 42 1013.7
20260830194409 78 264 0.0 2.0 0.00 0.00 0.00 46 1014.3
20260830193844 78 144 0.0 2.0 0.00 0.00 0.00 43 1014.5
20260830193344 78 262 0.0 3.0 0.00 0.00 0.00 44 1014.5
20260830193002 78 214 1.0 3.0 0.00 0.00 0.00 45 1014.0
20260830192900 78 200 1.0 3.0 0.00 0.00 0.00 44 1014.6
20260830192340 78 224 1.0 3.0 0.00 0.00 0.00 45 1014.7
20260830191916 78 358 0.0 2.0 0.00 0.00 0.00 47 1014.7
20260830191559 77 277 0.0 2.0 0.00 0.00 0.00 45 1014.4
20260830191352 78 276 0.0 4.0 0.00 0.00 0.00 46 1014.9
20260830190909 77 258 0.0 4.0 0.00 0.00 0.00 51 1015.0
20260830190342 77 250 0.0 1.0 0.00 0.00 0.00 55 1015.0
20260830190041 77 246 0.0 1.0 0.00 0.00 0.00 55 1014.5
20260830185840 77 246 0.0 0.0 0.00 0.00 0.00 55 1015.0
20260830185340 77 246 0.0 0.0 0.00 0.00 0.00 54 1015.1
20260830184836 78 246 0.0 0.0 0.00 0.00 0.00 54 1015.1
20260830184556 78 246 0.0 1.0 0.00 0.00 0.00 53 1014.7
20260830184354 78 246 0.0 1.0 0.00 0.00 0.00 53 1015.1
20260830183852 78 246 0.0 1.0 0.00 0.00 0.00 53 1015.2
20260830183349 78 246 0.0 1.0 0.00 0.00 0.00 52 1015.1
20260830183010 78 246 0.0 1.0 0.00 0.00 0.00 52 1014.7
20260830182907 78 246 0.0 1.0 0.00 0.00 0.00 53 1015.3
20260830182346 78 246 0.0 1.0 0.00 0.00 0.00 50 1015.3
20260830181840 78 246 0.0 1.0 0.00 0.00 0.00 49 1015.3
20260830181549 78 246 0.0 1.0 0.00 0.00 0.00 50 1014.9
20260830180845 78 200 0.0 2.0 0.00 0.00 0.00 50 1015.4
20260830180345 79 200 0.0 2.0 0.00 0.00 0.00 51 1015.4
20260830180043 78 220 0.0 2.0 0.00 0.00 0.00 48 1014.9
20260830175841 79 171 0.0 1.0 0.00 0.00 0.00 50 1015.5
20260830175341 79 241 0.0 1.0 0.00 0.00 0.00 50 1015.6
20260830174838 78 241 0.0 1.0 0.00 0.00 0.00 50 1015.6
20260830174541 78 241 0.0 1.0 0.00 0.00 0.00 50 1015.2
20260830174339 78 241 0.0 1.0 0.00 0.00 0.00 50 1015.6
20260830173915 78 242 0.0 1.0 0.00 0.00 0.00 50 1015.8
20260830173354 78 179 0.0 1.0 0.00 0.00 0.00 48 1015.8
20260830173107 77 166 0.0 1.0 0.00 0.00 0.00 48 1015.4
20260830172850 77 245 0.0 1.0 0.00 0.00 0.00 50 1015.9
20260830172405 77 359 0.0 1.0 0.00 0.00 0.00 51 1015.7
20260830171841 77 22 0.0 1.0 0.00 0.00 0.00 49 1016.0
20260830171545 76 316 0.0 0.0 0.00 0.00 0.00 52 1015.5
20260830171341 76 317 0.0 2.0 0.00 0.00 0.00 49 1016.0
20260830170834 76 318 0.0 2.0 0.00 0.00 0.00 51 1016.0
20260830170335 76 148 0.0 1.0 0.00 0.00 0.00 51 1016.1
20260830170053 75 252 0.0 1.0 0.00 0.00 0.00 50 1015.6
20260830165852 76 283 0.0 1.0 0.00 0.00 0.00 48 1016.0
20260830165352 75 324 0.0 5.0 0.00 0.00 0.00 48 1016.1
20260830164850 75 323 2.0 5.0 0.00 0.00 0.00 48 1016.1
20260830164607 74 221 0.0 2.0 0.00 0.00 0.00 49 1015.6
20260830164348 74 23 0.0 2.0 0.00 0.00 0.00 50 1016.1
20260830163844 74 154 1.0 2.0 0.00 0.00 0.00 50 1016.2
20260830163344 73 314 1.0 3.0 0.00 0.00 0.00 52 1016.3
20260830163049 73 252 0.0 3.0 0.00 0.00 0.00 52 1015.8
20260830162834 73 252 1.0 3.0 0.00 0.00 0.00 52 1016.4
20260830161833 73 269 1.0 2.0 0.00 0.00 0.00 53 1016.5
20260830161539 72 287 0.0 3.0 0.00 0.00 0.00 53 1016.0
20260830161335 73 263 0.0 4.0 0.00 0.00 0.00 55 1016.4
20260830160912 72 188 1.0 4.0 0.00 0.00 0.00 53 1016.5
20260830160351 72 83 1.0 4.0 0.00 0.00 0.00 53 1016.5
20260830160049 71 275 1.0 4.0 0.00 0.00 0.00 53 1016.0
20260830155847 72 220 1.0 4.0 0.00 0.00 0.00 53 1016.5
20260830155407 72 354 1.0 4.0 0.00 0.00 0.00 53 1016.6
20260830154843 72 240 1.0 5.0 0.00 0.00 0.00 53 1016.4
20260830154543 71 274 0.0 5.0 0.00 0.00 0.00 52 1016.0
20260830154341 72 242 1.0 5.0 0.00 0.00 0.00 52 1016.5
20260830153834 72 273 0.0 3.0 0.00 0.00 0.00 52 1016.6
20260830153335 72 359 1.0 3.0 0.00 0.00 0.00 51 1016.5
20260830153052 72 348 0.0 5.0 0.00 0.00 0.00 51 1016.1
20260830152851 72 242 1.0 5.0 0.00 0.00 0.00 50 1016.5
20260830152351 72 257 2.0 5.0 0.00 0.00 0.00 50 1016.6
20260830151847 72 133 1.0 5.0 0.00 0.00 0.00 51 1016.7
20260830151519 72 138 1.0 5.0 0.00 0.00 0.00 50 1016.2
20260830151408 72 259 2.0 5.0 0.00 0.00 0.00 51 1016.7
20260830150844 72 279 1.0 4.0 0.00 0.00 0.00 51 1016.7
20260830150346 72 53 1.0 6.0 0.00 0.00 0.00 51 1016.8
20260830150044 72 308 2.0 6.0 0.00 0.00 0.00 50 1016.6
20260830145843 72 87 2.0 6.0 0.00 0.00 0.00 50 1016.9
20260830145342 72 252 3.0 6.0 0.00 0.00 0.00 50 1016.8
20260830144840 72 310 2.0 6.0 0.00 0.00 0.00 50 1016.8
20260830144546 72 176 1.0 6.0 0.00 0.00 0.00 50 1016.4
20260830144336 73 257 2.0 6.0 0.00 0.00 0.00 49 1016.7
20260830143912 73 258 3.0 6.0 0.00 0.00 0.00 49 1016.7
20260830143351 73 281 1.0 5.0 0.00 0.00 0.00 49 1016.7
20260830143010 73 231 1.0 5.0 0.00 0.00 0.00 48 1016.4
20260830142908 73 285 2.0 5.0 0.00 0.00 0.00 48 1016.7
20260830142406 73 293 2.0 6.0 0.00 0.00 0.00 47 1016.8
20260830141841 74 259 3.0 7.0 0.00 0.00 0.00 47 1016.9
20260830141544 73 354 2.0 7.0 0.00 0.00 0.00 46 1016.6
20260830141343 74 33 2.0 7.0 0.00 0.00 0.00 46 1016.9
20260830140839 74 274 2.0 5.0 0.00 0.00 0.00 46 1017.0
20260830140339 74 75 2.0 6.0 0.00 0.00 0.00 46 1017.0
20260830140051 74 229 1.0 6.0 0.00 0.00 0.00 46 1016.5
20260830135850 74 318 1.0 6.0 0.00 0.00 0.00 49 1017.0
20260830135349 74 227 1.0 6.0 0.00 0.00 0.00 48 1017.0
20260830134847 74 3 3.0 6.0 0.00 0.00 0.00 47 1017.1
20260830134548 73 111 2.0 6.0 0.00 0.00 0.00 48 1016.7
20260830134346 74 248 1.0 5.0 0.00 0.00 0.00 48 1017.1
20260830133837 73 169 2.0 5.0 0.00 0.00 0.00 48 1017.1
20260830133336 73 259 2.0 5.0 0.00 0.00 0.00 48 1016.9
20260830133136 73 238 1.0 5.0 0.00 0.00 0.00 48 1016.5
20260830132852 73 241 1.0 5.0 0.00 0.00 0.00 48 1016.9
20260830132352 73 298 1.0 6.0 0.00 0.00 0.00 50 1016.9
20260830131848 72 124 3.0 6.0 0.00 0.00 0.00 50 1016.8
20260830131509 71 141 1.0 6.0 0.00 0.00 0.00 50 1016.5
20260830131408 72 278 1.0 6.0 0.00 0.00 0.00 52 1017.0
20260830130859 71 79 0.0 5.0 0.00 0.00 0.00 53 1017.0
20260830130338 70 307 1.0 4.0 0.00 0.00 0.00 53 1017.0
20260830130056 69 315 1.0 4.0 0.00 0.00 0.00 53 1016.6
20260830125854 70 340 1.0 4.0 0.00 0.00 0.00 53 1017.1
20260830125353 69 265 1.0 4.0 0.00 0.00 0.00 54 1017.1
20260830124913 69 226 1.0 4.0 0.00 0.00 0.00 54 1017.1
20260830124608 68 14 0.0 3.0 0.00 0.00 0.00 55 1016.9
20260830124351 68 290 1.0 5.0 0.00 0.00 0.00 55 1017.3
20260830123840 68 282 1.0 5.0 0.00 0.00 0.00 55 1017.4
20260830123340 67 276 1.0 4.0 0.00 0.00 0.00 56 1017.5
20260830123044 66 40 1.0 3.0 0.00 0.00 0.00 56 1017.1
20260830122834 66 148 0.0 3.0 0.00 0.00 0.00 57 1017.3
20260830122335 66 239 0.0 3.0 0.00 0.00 0.00 58 1017.4
20260830121847 66 109 0.0 1.0 0.00 0.00 0.00 58 1017.5
20260830121507 65 109 0.0 1.0 0.00 0.00 0.00 58 1017.2
20260830121406 65 109 0.0 1.0 0.00 0.00 0.00 58 1017.5
20260830120843 65 66 0.0 2.0 0.00 0.00 0.00 58 1017.5
20260830120343 64 154 1.0 2.0 0.00 0.00 0.00 58 1017.5
20260830120047 64 207 0.0 1.0 0.00 0.00 0.00 58 1017.2
20260830115841 64 225 0.0 1.0 0.00 0.00 0.00 59 1017.5
20260830115342 64 132 0.0 0.0 0.00 0.00 0.00 59 1017.6
20260830114838 63 161 0.0 1.0 0.00 0.00 0.00 59 1017.5
20260830114543 63 160 0.0 1.0 0.00 0.00 0.00 60 1017.3
20260830114338 63 160 0.0 1.0 0.00 0.00 0.00 59 1017.5
20260830113853 63 167 0.0 0.0 0.00 0.00 0.00 59 1017.5
20260830113353 63 167 0.0 2.0 0.00 0.00 0.00 59 1017.5
20260830113046 63 220 0.0 2.0 0.00 0.00 0.00 59 1017.1
20260830112845 63 221 0.0 4.0 0.00 0.00 0.00 58 1017.6
20260830112343 63 243 0.0 4.0 0.00 0.00 0.00 59 1017.7
20260830111901 63 236 0.0 2.0 0.00 0.00 0.00 59 1017.7
20260830111502 62 247 0.0 0.0 0.00 0.00 0.00 59 1017.3
20260830111400 62 249 1.0 2.0 0.00 0.00 0.00 59 1017.7
20260830110834 62 344 0.0 1.0 0.00 0.00 0.00 60 1017.7
20260830110335 62 289 0.0 2.0 0.00 0.00 0.00 60 1017.7
20260830110014 61 110 0.0 2.0 0.00 0.00 0.00 60 1017.3
20260830105913 61 198 1.0 2.0 0.00 0.00 0.00 61 1017.6
20260830105351 60 335 0.0 2.0 0.00 0.00 0.00 62 1017.5
20260830104925 60 228 0.0 2.0 0.00 0.00 0.00 64 1017.4
20260830104546 59 318 0.0 1.0 0.00 0.00 0.00 63 1017.0
20260830104340 59 244 0.0 1.0 0.00 0.00 0.00 64 1017.4
20260830103836 59 6 0.0 1.0 0.00 0.00 0.00 64 1017.4
20260830103336 58 252 0.0 1.0 0.00 0.00 0.00 65 1017.5
20260830103055 58 245 0.0 0.0 0.00 0.00 0.00 65 1017.1
20260830102854 58 245 0.0 0.0 0.00 0.00 0.00 65 1017.4
20260830102352 58 232 0.0 0.0 0.00 0.00 0.00 65 1017.5
20260830101841 58 232 0.0 0.0 0.00 0.00 0.00 65 1017.5
20260830101502 58 232 0.0 0.0 0.00 0.00 0.00 65 1017.2
20260830101401 58 232 0.0 0.0 0.00 0.00 0.00 65 1017.6
20260830100838 58 232 0.0 0.0 0.00 0.00 0.00 66 1017.6
20260830100334 58 232 0.0 0.0 0.00 0.00 0.00 65 1017.5
20260830100056 58 232 0.0 0.0 0.00 0.00 0.00 65 1017.2
20260830095850 59 232 0.0 0.0 0.00 0.00 0.00 65 1017.6
20260830095350 59 232 0.0 0.0 0.00 0.00 0.00 65 1017.7
20260830094847 59 232 0.0 0.0 0.00 0.00 0.00 65 1017.7
20260830094506 58 232 0.0 0.0 0.00 0.00 0.00 65 1017.3
20260830094404 59 232 0.0 0.0 0.00 0.00 0.00 65 1017.6
20260830093839 59 232 0.0 0.0 0.00 0.00 0.00 65 1017.6
20260830093338 59 232 0.0 0.0 0.00 0.00 0.00 64 1017.6
20260830093054 59 232 0.0 0.0 0.00 0.00 0.00 64 1017.2
20260830092853 59 232 0.0 0.0 0.00 0.00 0.00 64 1017.6
20260830092334 59 232 0.0 0.0 0.00 0.00 0.00 64 1017.6
20260830091852 59 232 0.0 0.0 0.00 0.00 0.00 64 1017.6
20260830091548 59 232 0.0 0.0 0.00 0.00 0.00 64 1017.3
20260830091346 59 232 0.0 0.0 0.00 0.00 0.00 64 1017.6
20260830090844 59 232 0.0 0.0 0.00 0.00 0.00 63 1017.7
20260830090343 60 232 0.0 0.0 0.00 0.00 0.00 63 1017.7
20260830090009 60 232 0.0 0.0 0.00 0.00 0.00 63 1017.4
20260830085901 60 232 0.0 0.0 0.00 0.00 0.00 63 1017.7
20260830085340 60 232 0.0 0.0 0.00 0.00 0.00 62 1017.8
20260830084834 60 229 0.0 1.0 0.00 0.00 0.00 62 1017.9
20260830084536 60 229 0.0 1.0 0.00 0.00 0.00 62 1017.5
20260830084335 60 229 0.0 1.0 0.00 0.00 0.00 62 1018.0
20260830083848 60 236 0.0 1.0 0.00 0.00 0.00 62 1018.0
20260830083348 60 236 0.0 1.0 0.00 0.00 0.00 62 1018.0
20260830083102 60 248 0.0 1.0 0.00 0.00 0.00 63 1017.7
20260830082842 60 249 0.0 1.0 0.00 0.00 0.00 63 1018.0
20260830082342 60 230 0.0 0.0 0.00 0.00 0.00 63 1018.1
20260830081858 60 124 0.0 1.0 0.00 0.00 0.00 63 1018.1
20260830081539 60 124 0.0 1.0 0.00 0.00 0.00 63 1017.8
20260830081338 60 124 0.0 1.0 0.00 0.00 0.00 62 1018.2
20260830080915 60 124 0.0 1.0 0.00 0.00 0.00 62 1018.2